Dewpoint
65 66 65 65 67 66 65 66 64 62 60 60 60 61 61 63 61 61 63 63 64 63 65 66 67 66 65 67 64 67 70 68 69 71 73 74 74 75 73 74 74 73 74 72 68 69 76 76 76 75 75 73 74 69 68 68 74 74 75 77 77 75 76 76 74 73 76 77 76 76 74 71 74 76 75 75 76 74 76 76 76 76 76 78 78
64 67 67 64 63 63 63 64 64 62 59 59 60 59 60 61 62 63 60 63 64 63 65 63 65 65 64 64 66 64 70 72 66 68 70 72 71 67 68 77 76 75 75 74 73 68 72 76 74 70 73 73 69 65 69 66 71 68 73 71 72 74 75 75 75 74 72 77 75 78 77 75 72 75 75 72 74 75 75 75 75 74 75 77 78
62 67 66 65 65 63 62 63 62 62 60 59 59 58 59 59 62 60 60 60 64 65 63 63 68 66 65 66 67 66 69 67 66 67 69 71 71 68 66 73 75 75 73 74 71 73 71 72 70 71 68 68 70 70 69 70 70 70 67 72 73 74 73 76 76 74 71 73 77 75 77 75 73 71 73 73 74 75 75 74 75 75 76 77 75
62 66 67 65 63 63 64 63 62 62 61 61 60 61 59 59 62 61 61 61 63 68 68 65 68 73 66 69 68 66 70 66 65 66 70 70 71 72 72 73 73 73 72 70 69 70 70 71 69 69 71 73 74 75 77 72 73 74 72 71 73 73 75 76 76 75 73 72 75 75 77 75 72 72 74 75 75 75 74 74 75 74 75 75 74
70 67 64 63 63 63 63 62 62 62 62 61 61 61 61 61 64 64 62 62 62 64 70 67 68 69 62 64 67 67 66 66 68 65 65 67 69 69 70 71 69 71 70 73 72 73 73 72 71 72 72 70 72 75 73 71 74 76 74 76 76 74 74 75 78 76 75 73 74 76 76 75 73 73 73 73 72 74 74 73 73 75 75 73 72
71 70 65 63 66 63 63 62 62 62 62 61 61 61 62 62 63 64 65 64 65 64 66 65 64 67 66 65 64 68 69 69 70 69 66 65 67 68 69 70 68 69 72 72 72 73 71 74 72 72 70 72 74 76 73 75 75 74 75 77 75 75 76 77 78 76 75 75 73 73 75 73 73 73 73 73 71 71 72 73 73 73 74 73 73
71 71 70 66 68 65 61 61 62 62 63 61 60 61 61 61 62 63 65 65 63 63 63 66 68 65 66 65 63 67 69 65 72 70 68 67 65 67 65 67 69 69 71 72 71 75 72 70 73 72 74 75 73 73 74 74 73 73 76 75 75 75 75 76 77 76 75 74 75 74 74 75 75 73 74 74 72 72 71 71 72 73 73 73 72
71 71 71 72 73 69 68 64 62 64 64 66 64 60 60 60 62 63 64 65 63 63 63 64 65 66 67 66 67 68 70 70 72 72 69 67 67 69 70 69 69 69 70 73 72 73 74 73 72 72 75 78 77 76 76 75 75 73 76 76 76 75 75 77 76 76 73 72 73 73 74 75 73 71 72 72 72 72 72 71 70 71 71 72 72
71 71 72 73 75 74 71 71 68 66 70 71 66 64 62 62 64 64 65 64 62 63 63 65 66 67 67 69 68 66 65 66 67 68 69 70 69 67 69 70 70 71 72 70 72 75 73 74 72 73 76 75 76 75 75 75 74 75 76 77 77 76 75 75 75 73 73 73 73 74 73 72 72 71 71 71 69 69 71 72 71 71 71 71 71
70 72 73 75 76 75 76 75 73 73 69 70 72 69 64 63 60 62 63 64 67 68 67 66 67 68 68 69 69 67 66 65 72 73 73 70 70 68 67 70 73 74 75 73 72 75 73 73 75 76 77 76 75 76 77 76 75 74 77 78 77 76 76 75 74 72 72 71 72 72 71 70 69 71 71 72 72 72 71 71 70 71 70 70 70
71 71 72 73 75 76 75 76 76 75 76 73 71 70 68 64 64 67 66 66 69 73 71 66 65 67 68 68 67 66 66 66 72 69 70 73 71 71 73 78 76 76 73 75 75 75 73 72 75 76 76 75 74 75 76 77 76 76 76 75 75 77 75 74 74 73 72 71 71 71 71 71 71 71 70 72 72 71 72 71 70 69 69 69 67
73 73 73 74 75 75 75 75 76 76 76 75 75 74 69 68 70 72 69 68 72 71 72 72 70 69 70 68 68 68 70 73 67 67 69 69 73 73 73 74 73 73 74 72 73 74 75 74 75 75 74 74 74 75 77 76 77 77 75 75 76 76 75 75 75 73 73 72 71 71 70 69 71 71 71 71 71 72 71 71 70 70 69 68 67
72 74 75 75 75 76 76 76 76 76 76 77 75 75 75 71 69 71 73 73 73 73 73 71 70 70 70 71 69 70 69 70 65 66 67 68 70 74 70 72 72 73 73 73 74 77 79 77 74 73 73 76 76 74 76 77 77 76 76 76 75 73 70 71 73 72 73 73 71 70 69 70 70 69 68 70 72 71 71 71 70 69 69 68 67
71 71 74 75 76 75 75 75 76 76 76 76 77 76 74 73 72 69 73 76 75 74 72 70 71 73 72 72 73 71 71 72 65 66 66 66 68 72 73 72 71 72 74 74 74 76 76 75 75 73 74 75 76 74 73 76 77 76 76 75 73 71 72 71 71 72 72 71 70 67 66 67 66 66 67 69 70 70 69 68 68 67 66 65 65
72 73 74 75 75 75 75 75 75 76 76 76 76 76 77 75 74 74 74 74 73 74 73 72 72 72 72 71 69 67 66 66 64 65 65 65 66 71 72 70 70 72 74 75 76 75 75 76 76 76 75 75 75 74 74 75 75 75 74 72 67 66 65 64 65 66 67 66 62 62 61 62 64 64 66 67 69 70 69 68 67 66 65 66 64
72 73 74 74 74 74 74 74 74 75 75 75 76 75 75 75 75 75 75 75 72 72 73 73 72 72 73 72 70 70 69 63 63 64 64 64 67 71 72 73 73 71 72 74 75 76 75 75 75 75 74 74 73 72 74 75 74 74 73 67 64 61 60 60 59 62 62 58 58 59 60 62 64 64 65 65 67 70 66 65 66 66 64 62 59
72 72 73 74 74 74 74 73 73 74 75 75 75 74 74 74 75 75 74 73 72 73 72 72 73 72 73 73 72 72 71 66 62 62 63 63 67 72 73 71 72 72 72 74 75 76 78 77 74 74 74 73 71 66 69 75 74 73 71 67 64 60 58 58 57 56 56 56 58 60 60 60 60 60 59 61 65 67 67 65 65 66 60 58 57
72 72 73 73 74 73 73 72 73 73 74 74 74 74 74 74 74 75 74 73 72 72 72 72 73 73 72 72 71 71 69 70 61 61 61 62 69 71 72 73 73 73 73 72 78 75 75 74 72 74 74 74 70 65 68 74 74 72 71 67 64 60 56 55 52 57 59 58 59 60 60 61 62 62 62 61 61 65 68 65 62 61 58 55 53
72 72 72 72 72 72 72 72 73 74 74 74 73 73 73 73 74 74 73 72 72 73 73 73 73 74 73 73 74 71 70 70 61 61 61 61 68 73 74 73 72 72 76 76 75 74 73 73 73 73 73 71 63 65 67 75 73 73 72 68 65 62 59 54 55 57 59 57 59 62 64 64 62 63 63 63 62 62 60 64 61 62 58 55 54
72 72 72 72 72 72 72 73 72 73 73 74 73 74 74 74 73 73 72 72 72 72 72 72 73 72 73 73 72 72 75 70 67 60 60 61 63 74 75 75 72 75 75 75 72 72 71 72 73 69 65 62 61 63 65 65 73 73 72 69 65 62 61 61 62 64 64 63 61 60 60 60 58 59 59 58 60 60 58 55 56 61 60 54 54
71 72 73 72 72 72 73 72 72 72 73 73 73 73 74 74 73 72 72 72 72 72 72 73 73 72 71 72 71 73 73 71 66 60 60 61 63 68 73 74 75 76 74 73 71 70 71 71 70 64 59 59 57 57 59 62 68 74 73 70 67 66 65 65 65 64 62 62 63 63 62 61 61 58 56 57 56 56 57 56 54 54 55 52 50
72 72 72 72 72 72 72 72 72 72 73 73 72 71 72 73 72 72 72 72 73 73 72 71 71 72 71 71 71 73 73 71 67 60 58 58 59 62 68 72 70 74 73 71 72 71 70 71 69 65 58 58 57 56 56 60 65 72 68 59 59 63 66 66 64 63 63 62 61 59 58 57 56 56 56 57 56 57 54 55 56 54 54 54 55
70 71 71 71 71 71 71 71 71 71 71 72 70 70 71 71 71 71 72 73 73 72 70 71 70 69 71 69 72 73 72 70 69 67 59 56 55 57 59 64 62 75 73 70 69 69 71 70 67 62 57 54 54 55 57 60 64 60 55 57 58 59 63 64 64 62 62 61 60 60 59 57 57 56 57 57 57 58 55 55 55 55 56 56 56
70 69 69 70 71 70 70 70 71 71 71 71 70 70 70 71 71 71 72 73 72 71 69 68 69 69 70 67 70 71 70 70 67 66 65 57 54 54 56 57 60 71 72 69 69 71 69 68 65 54 51 49 53 56 59 62 60 53 55 57 59 62 64 63 63 62 62 60 60 60 58 58 57 57 59 60 58 60 57 55 55 54 55 55 56
66 65 65 65 66 68 70 70 70 70 70 70 70 70 69 70 70 71 71 71 70 69 69 68 68 68 67 68 69 69 69 70 69 67 67 64 57 56 58 60 60 64 71 71 71 69 59 52 50 51 51 51 52 54 55 55 54 55 56 59 64 63 63 61 61 61 60 59 59 59 59 59 59 59 61 58 58 57 56 52 52 52 52 53 55
66 65 64 64 64 64 64 66 66 68 70 70 70 70 69 70 70 71 71 70 70 69 69 68 67 67 68 69 69 68 69 68 68 67 67 67 64 59 59 63 66 65 65 61 57 54 53 53 53 54 57 59 64 63 63 61 57 58 59 62 61 61 60 59 59 59 59 59 59 57 57 57 59 62 64 64 62 60 59 58 57 55 54 54 53
65 64 63 63 63 62 61 60 60 59 63 69 70 69 70 71 71 70 70 69 69 68 68 67 66 67 67 67 66 66 66 65 65 65 67 67 66 65 64 63 61 61 62 61 60 60 60 62 61 59 59 59 61 60 61 61 63 63 63 61 59 58 58 58 60 60 61 59 57 57 58 59 61 60 59 61 62 64 65 58 54 55 58 57 56
64 63 63 62 62 62 61 60 57 55 54 56 57 60 63 64 63 64 66 69 67 67 66 66 66 66 65 65 65 65 64 64 64 64 63 64 66 66 65 66 66 65 65 65 64 64 62 59 61 63 63 63 63 64 64 63 63 61 59 58 57 58 59 60 61 65 59 57 56 57 59 60 58 58 60 55 56 58 59 59 60 59 59 58 58
64 63 62 62 62 61 60 59 58 56 54 52 49 48 49 56 60 57 55 55 65 68 67 67 67 67 66 65 65 64 64 63 62 52 58 51 59 66 66 66 66 66 66 61 65 65 64 64 63 64 64 63 63 63 63 61 61 60 57 58 58 60 62 63 59 55 57 58 58 59 58 61 59 55 55 56 58 58 60 58 60 56 55 55 53
64 63 63 63 62 62 61 61 60 59 57 56 54 53 49 44 48 55 54 52 51 50 55 65 67 64 59 55 57 64 65 63 50 45 45 46 47 54 57 57 57 62 60 60 64 64 64 64 64 63 63 63 63 63 62 61 61 60 59 60 60 58 59 59 58 58 59 59 60 61 58 56 53 53 52 53 55 56 58 59 61 62 61 53 51
63 62 62 62 62 62 61 61 60 60 59 58 58 57 55 52 43 44 48 48 46 44 45 47 51 55 59 55 52 48 48 46 43 43 45 46 47 48 49 51 52 52 56 64 65 64 63 63 63 63 63 62 62 61 62 61 61 60 59 59 57 57 58 57 58 59 59 59 61 58 59 55 53 54 53 55 56 58 60 62 60 53 53 53 53
63 63 63 63 64 63 62 62 61 60 59 59 57 57 56 54 53 45 43 45 44 43 43 43 44 46 50 55 57 53 48 44 43 43 45 46 47 48 49 50 50 53 53 54 65 63 63 63 62 62 62 61 61 62 62 61 61 59 57 55 55 57 57 57 59 58 59 58 55 54 55 55 54 54 55 56 57 58 58 54 54 54 55 54 54
64 64 64 65 64 64 63 63 62 61 60 59 57 56 54 54 52 52 51 43 43 42 42 42 42 43 43 43 45 48 47 43 43 44 45 46 47 46 46 47 49 49 55 65 64 63 63 62 62 62 61 61 61 61 62 60 56 55 56 57 56 57 57 59 60 63 58 57 57 55 55 55 55 55 56 56 54 51 54 55 56 56 55 54 54
63 64 64 64 64 63 63 63 63 62 61 60 58 56 54 53 52 53 52 52 53 49 45 43 43 43 41 42 43 43 42 43 43 44 45 46 47 50 53 56 46 46 56 67 65 63 62 61 62 62 61 61 60 59 57 57 57 58 59 60 59 59 61 63 64 57 57 57 55 54 54 54 56 56 53 53 53 55 54 54 56 59 52 52 53
64 65 65 64 63 63 63 63 62 62 61 59 58 56 56 57 56 54 52 52 52 52 53 54 48 42 50 46 41 41 42 43 45 46 47 48 50 49 52 64 64 65 67 67 66 64 62 61 61 62 62 60 58 58 58 58 60 60 61 61 60 60 62 62 59 59 58 58 55 55 55 55 56 54 54 55 54 53 53 54 55 54 52 50 52
63 63 64 63 63 63 63 64 64 64 63 61 60 59 59 59 57 55 54 54 52 52 52 54 54 50 44 40 40 41 42 43 44 46 47 48 48 52 64 65 64 64 64 65 64 64 63 63 63 64 61 60 60 60 61 61 61 60 61 61 59 60 60 60 59 61 61 56 56 56 55 57 55 53 53 55 54 56 52 55 52 52 53 53 54
64 65 64 64 64 66 63 62 61 59 58 57 57 58 58 58 57 55 55 53 53 53 54 56 56 56 55 56 49 43 41 42 43 43 44 44 42 54 62 64 63 64 64 63 63 63 65 63 63 62 61 60 61 61 62 62 63 63 62 63 62 60 60 62 61 61 60 56 56 56 57 55 56 56 56 55 59 57 55 53 51 52 51 52 53
60 60 60 60 63 63 59 57 55 58 58 57 59 57 56 56 54 53 53 53 54 54 55 56 58 58 58 60 61 58 53 43 45 47 47 49 56 60 61 62 63 63 62 65 64 63 62 63 65 64 62 62 62 62 61 61 61 61 62 64 64 63 62 61 62 62 60 57 57 58 59 59 64 60 57 58 54 59 51 53 50 49 52 52 54
60 60 60 60 60 53 53 55 56 55 54 51 51 52 53 53 55 56 56 57 56 55 55 57 58 58 59 59 61 61 59 59 59 59 60 60 61 62 63 63 62 63 62 62 61 62 62 62 64 65 66 65 63 64 63 63 65 63 62 61 61 61 59 59 61 60 58 59 57 58 61 59 60 60 60 57 51 52 53 51 53 52 52 53 54
60 58 58 59 55 56 55 56 55 54 53 51 51 53 54 55 56 56 56 56 55 54 54 56 58 59 62 61 60 60 59 59 60 60 61 62 63 64 64 62 61 61 61 62 62 61 61 62 65 64 65 64 64 65 65 64 63 63 65 63 61 60 61 61 59 59 58 59 60 61 57 58 61 63 55 53 56 53 53 54 54 54 54 53 49
60 61 58 60 58 57 56 54 54 54 54 54 53 53 53 55 55 54 53 54 54 53 54 57 59 63 58 54 46 52 59 62 62 64 61 61 64 61 62 62 60 61 61 63 62 62 62 61 63 63 64 65 64 65 64 63 63 63 63 63 64 61 59 60 60 59 58 58 60 59 58 58 56 61 53 50 53 54 50 54 54 54 53 50 51
59 60 62 61 62 58 57 56 56 61 60 58 56 54 54 55 54 54 55 55 55 55 54 56 59 62 55 48 48 47 57 59 62 59 59 62 63 62 63 64 63 65 60 58 60 59 61 62 61 62 62 62 63 63 61 61 61 61 62 59 62 61 58 57 58 58 58 56 59 57 56 55 54 52 52 54 57 58 58 50 48 52 51 51 46
63 60 60 60 58 57 57 56 61 59 60 57 56 58 57 55 55 57 56 55 52 51 53 55 57 60 62 52 57 50 57 61 59 61 58 57 58 60 59 61 60 60 61 59 59 61 62 62 61 61 61 63 65 65 65 61 60 58 58 60 59 58 57 55 56 57 56 57 55 52 52 50 51 52 52 55 55 54 49 49 49 52 52 49 51
61 57 59 57 57 58 62 59 57 57 57 58 57 58 55 55 56 56 54 55 54 52 51 51 53 57 59 60 55 58 59 59 56 57 58 58 59 57 57 60 59 58 58 59 60 63 60 57 57 60 61 59 58 57 57 57 60 58 59 58 56 56 56 56 56 56 55 54 54 54 54 55 53 50 51 52 53 55 51 52 51 51 44 50 49
53 53 51 52 55 57 56 62 56 56 56 55 55 58 59 60 53 56 54 53 54 53 51 51 52 53 54 59 61 57 56 53 56 57 57 57 57 58 56 57 58 62 59 58 62 64 60 58 58 59 58 58 59 58 57 58 57 57 60 57 56 55 56 57 57 56 55 55 54 55 54 52 53 51 51 52 50 49 47 48 43 45 50 47 45
51 51 51 51 52 55 55 54 56 56 55 51 51 51 51 55 57 53 52 51 53 52 51 52 52 52 52 55 54 53 55 58 56 54 56 57 57 55 57 59 59 59 58 58 61 60 59 60 58 57 57 60 57 57 57 57 54 54 55 55 56 56 55 55 55 55 55 58 58 55 52 51 49 50 50 53 50 51 50 47 46 45 49 48 46
53 51 49 51 51 52 56 57 55 55 56 52 52 51 48 51 53 54 55 54 52 55 53 52 51 51 51 55 52 56 52 52 53 52 57 58 58 59 57 59 61 59 57 60 61 58 59 58 57 58 57 56 56 57 55 53 52 50 51 51 53 54 56 55 56 55 53 52 52 51 52 51 49 48 48 52 53 47 49 46 45 46 45 43 45
50 48 48 51 50 51 50 49 51 52 51 50 51 48 47 48 49 48 50 51 51 49 49 50 56 51 52 50 52 51 51 52 53 55 55 58 58 57 59 59 58 57 59 59 59 58 56 57 57 56 57 58 56 54 54 53 51 50 49 48 48 49 48 48 52 53 56 56 53 51 50 49 49 51 52 49 46 49 50 45 44 46 44 44 44
45 45 48 48 48 49 46 49 50 47 48 47 47 48 42 43 44 48 50 49 47 47 48 52 52 52 54 54 50 52 52 57 53 54 56 54 58 58 59 59 60 59 58 58 57 57 58 57 56 56 57 57 55 53 52 52 50 48 48 47 45 41 39 40 45 49 49 54 52 51 50 48 48 47 47 49 51 46 45 48 44 43 42 45 42
46 49 47 47 49 48 50 49 43 46 50 47 46 44 44 44 46 47 50 49 50 49 52 53 53 52 52 50 51 52 55 53 54 56 55 56 56 58 59 59 59 58 57 57 57 57 57 58 57 56 55 55 53 52 50 48 48 47 46 45 41 40 41 40 39 39 47 53 54 49 50 48 48 47 46 46 46 45 42 42 43 42 42 42 46
49 48 49 48 49 49 49 49 48 48 49 45 46 46 43 44 46 46 50 50 49 51 49 53 51 49 52 50 50 53 53 56 54 55 54 55 56 56 58 58 59 58 57 57 56 57 57 56 54 54 52 50 49 48 48 47 46 45 41 39 37 35 34 38 44 35 35 38 55 52 47 49 46 45 43 45 43 40 44 42 42 44 45 43 43